Starlink 31446

operational
NORAD ID: 59315 Int'l Des: 2024-056 Owner: SPXS Country: US Constellation: starlink
LEOCIRCULAR

Über Starlink 31446

Beschreibung wird geladen...

Live-Position

3D-Globus wird geladen...

Nächste Überflüge

Höhenverlauf

Altitude vs Time

uPlot chart will show altitude changes over time

Zweizeiliger Elementsatz

1 59315U 24056V 25305.50671750 -.00001092 00000-0 -30218-4 0 9998
2 59315 43.0037 234.3388 0000448 309.3062 50.7750 15.27553354 91556
Epoch: 1. Nov. 2025 • Age: 19 hours

Aktueller Status

Höhe 484.2 km
Geschwindigkeit 7.62 km/s
Subsatellitenpunkt -8.78°S, 74.58°E
Startdatum 24. März 2024
Alter 1.6 years
Typ internet

Technische Details

Klassifizierung Payload
Masse 730.00 kg
Trockenmasse 700.00 kg
Gesamtmasse 730.00 kg
Länge 0.30 m
Durchmesser 4.10 m
Spannweite 29.00 m
Form Box + pan
Hersteller SPXS
Bus-Typ Starlink V2M
Phasenstatus In Orbit
Besitzer/Staat SPXS/US

Große Konstellationen

Loading constellations...